RH
45 54 58 43 47 39 40 42 43 38 30 33 38 41 37 32 31 36 51 72 88 89 75 73 73 83 95 100 100 100 97 99 96 90 84 76 72 48 42 40 38 38 41 45
57 59 45 38 45 44 47 50 50 46 39 39 44 47 39 34 31 38 48 62 83 78 73 68 67 75 90 98 100 100 98 96 87 68 51 47 38 36 34 36 35 36 40 43
53 51 41 43 50 53 52 51 46 50 45 42 46 48 41 34 32 39 44 51 72 76 74 70 64 68 74 77 78 74 69 64 47 37 33 32 31 29 29 32 33 36 35 38
53 40 47 45 48 45 53 46 46 50 55 64 44 70 40 37 36 48 54 66 72 70 65 63 63 60 55 50 45 41 37 33 30 24 19 20 26 34 43 40 39 41 45 47
49 52 49 52 46 42 47 45 52 51 61 58 57 66 51 39 44 45 60 66 71 64 61 61 62 54 50 48 41 35 30 27 25 23 21 20 25 31 33 35 37 41 44 44
36 45 41 40 45 42 45 47 48 52 63 86 58 62 59 46 38 44 48 60 68 64 59 59 55 52 50 46 35 31 27 26 23 21 23 22 23 29 33 41 46 39 33 32
55 51 46 40 45 47 47 55 75 81 84 75 51 62 49 42 38 36 45 56 65 62 59 59 61 58 52 42 34 29 26 28 26 24 21 20 23 28 41 40 32 31 33 39
57 70 50 48 41 48 51 47 76 81 73 55 54 69 53 40 35 36 42 49 61 63 57 58 58 54 50 41 33 29 27 28 25 21 21 24 28 30 30 29 29 32 36 38
52 47 44 39 42 34 58 63 44 69 65 82 68 57 41 40 41 45 57 61 64 62 57 58 57 50 47 37 31 29 26 26 24 23 25 24 22 20 22 24 26 29 29 29
46 55 47 41 37 39 42 48 66 75 84 75 70 69 60 46 51 58 65 64 61 59 59 59 56 49 40 31 31 25 24 23 24 22 19 19 21 22 24 27 28 30 31 32
41 43 58 46 48 48 52 55 56 58 87 73 62 56 52 42 43 57 60 60 59 60 60 58 50 43 36 33 29 25 22 20 20 20 22 23 27 30 32 33 37 40 43 46
36 63 72 55 46 36 38 45 47 67 86 89 74 53 42 46 52 56 57 58 59 58 56 50 44 43 39 32 28 23 20 22 24 26 29 31 34 35 36 41 46 49 48 48
41 72 88 72 56 50 52 48 47 55 75 66 84 71 60 58 59 57 60 58 57 52 47 44 45 44 41 32 26 25 28 29 31 33 34 38 39 41 46 50 51 51 51 56
44 59 46 44 40 60 68 52 48 54 69 64 64 57 55 66 65 58 53 50 48 45 41 39 44 46 38 30 30 34 35 34 36 38 39 42 47 50 54 57 55 55 65 66
47 59 60 48 47 42 52 58 56 56 55 68 52 53 47 64 64 55 44 44 44 41 37 37 44 42 42 40 39 38 38 41 41 42 48 55 59 58 59 60 66 73 71 76
65 84 68 75 52 51 58 52 50 58 54 54 52 54 46 51 55 50 40 39 40 36 34 36 38 40 44 47 46 45 47 47 47 54 61 62 59 62 73 76 76 81 84 84
68 85 88 74 69 70 87 61 55 51 46 50 65 48 55 62 55 49 38 35 35 32 32 35 37 41 45 49 48 51 52 56 57 61 64 65 67 72 76 80 84 91 96 99
83 71 90 100 92 98 74 54 49 50 44 42 45 48 45 49 48 43 34 33 31 28 32 35 39 44 51 52 51 56 59 61 62 70 71 72 77 84 82 84 86 87 88 95
88 80 100 100 97 88 74 68 64 63 60 44 46 51 50 47 38 34 36 29 26 26 31 37 46 51 54 55 58 61 64 65 69 72 82 86 85 88 91 94 91 86 90 92
98 93 94 99 98 96 68 57 58 51 73 57 47 52 41 40 60 51 32 26 27 30 37 48 54 58 62 61 56 58 73 72 75 82 87 94 98 98 97 100 100 98 99 99
100 100 99 99 99 92 69 34 53 80 67 60 46 48 40 44 48 38 27 30 32 41 50 55 59 62 64 58 60 76 76 78 80 82 86 90 95 97 98 98 98 98 99 97
96 97 99 99 99 93 61 38 64 60 38 39 56 56 43 55 48 38 36 39 46 52 58 58 64 72 68 66 59 77 76 80 85 86 87 88 93 92 94 92 92 91 90 89
98 89 94 89 88 62 52 37 37 41 36 37 54 57 55 47 41 37 40 43 52 57 59 65 73 81 76 66 58 73 81 86 82 83 88 88 89 89 89 89 81 81 85 93
88 80 94 88 74 70 38 40 37 37 36 41 56 51 44 40 39 41 44 55 57 60 65 74 79 84 79 71 72 74 83 74 66 82 87 78 71 73 68 68 76 90 95 100
89 85 89 86 69 50 44 43 41 52 55 53 50 44 40 41 43 48 55 58 61 65 72 73 75 78 82 78 79 76 54 59 57 56 60 64 61 56 53 55 68 72 81 89
91 89 85 86 70 68 60 49 53 56 54 48 44 42 39 41 49 53 58 60 63 71 74 73 75 78 80 72 60 55 47 48 47 50 52 49 40 37 40 53 30 48 71 65
Wind_Speed
5 5 10 14 9 4 5 4 7 2 3 2 6 7 13 9 8 11 12 10 8 6 4 9 11 13 14 15 20 27 28 23 21 23 21 19 17 19 17 14 14 13 13 13
2 16 12 5 8 7 4 4 14 9 6 7 10 9 11 6 6 11 16 14 12 8 7 7 13 16 17 21 24 27 27 25 22 21 19 19 17 15 14 12 13 14 13 13
16 5 15 8 5 8 9 16 14 8 4 5 7 10 9 6 5 6 10 11 10 15 13 8 9 18 24 26 28 29 27 26 23 21 22 19 14 11 10 12 13 13 12 11
12 12 15 14 18 12 12 9 5 5 2 7 2 5 3 4 6 6 9 11 14 15 12 10 11 17 27 27 29 30 29 26 23 19 18 14 13 10 9 10 10 10 11 12
13 18 19 15 14 13 9 6 9 5 5 2 6 4 6 8 8 8 9 10 14 16 16 13 12 23 29 29 30 30 29 26 22 18 14 14 14 12 9 7 8 8 9 9
13 4 16 12 10 17 6 3 1 0 3 6 15 9 5 8 11 7 7 15 17 16 15 13 21 27 28 29 30 30 28 24 19 17 15 14 12 8 6 5 6 6 6 6
5 10 4 6 8 6 6 7 2 3 2 10 10 11 19 6 7 10 16 18 19 17 17 16 15 18 24 30 30 28 26 23 19 17 15 12 10 8 6 5 2 3 4 2
16 8 18 8 14 7 20 15 7 7 8 7 6 7 6 9 11 6 11 20 18 18 17 17 15 20 24 30 28 26 25 23 19 16 14 11 10 8 6 3 2 2 4 6
14 14 6 16 5 15 5 15 14 4 1 2 5 6 5 1 5 3 9 15 19 19 20 20 18 23 27 32 28 26 23 21 18 16 15 13 9 6 3 2 3 4 7 9
5 1 7 15 5 11 12 9 4 3 6 16 5 6 7 4 8 5 10 16 16 16 17 15 14 22 29 32 28 24 22 21 18 16 13 10 8 6 3 2 5 7 9 11
8 5 2 14 18 23 11 10 6 6 6 8 13 10 8 18 16 15 13 15 18 19 18 16 14 22 31 28 26 24 21 19 16 14 12 10 7 4 3 5 7 7 8 11
27 5 4 14 3 14 27 26 21 7 4 4 6 21 4 6 6 9 10 10 11 14 14 15 15 21 25 27 25 23 20 20 17 14 12 9 6 5 5 6 7 9 13 15
19 6 2 5 6 3 16 13 16 12 2 17 7 5 6 3 6 7 12 10 11 13 14 13 11 14 19 24 23 22 22 19 17 13 10 9 6 4 6 7 11 14 16 16
19 9 26 22 12 9 8 19 20 19 15 13 28 16 3 5 8 9 10 13 15 17 18 15 11 11 20 26 27 24 21 16 14 12 8 6 5 5 7 10 13 15 15 16
19 24 15 18 1 18 11 13 21 29 26 17 20 27 18 13 11 16 13 13 16 17 17 15 12 12 20 25 26 22 19 16 13 10 9 6 3 5 8 11 13 13 15 14
7 4 6 9 16 11 10 17 21 24 24 27 23 23 6 12 7 11 17 18 18 17 16 14 14 15 19 22 25 22 19 16 13 11 8 4 5 8 11 13 14 13 15 13
14 6 4 16 6 3 13 29 23 21 24 21 25 18 9 7 16 18 18 21 23 21 18 19 19 17 20 23 27 24 20 18 12 8 5 5 8 11 13 13 13 13 14 12
7 9 3 2 8 11 9 9 24 26 25 22 24 9 16 13 20 19 23 26 21 19 19 17 16 20 22 24 24 22 19 14 9 7 7 7 7 7 9 9 9 9 10 11
3 9 4 5 10 5 10 5 7 13 25 27 21 9 8 7 6 4 13 20 22 23 18 20 25 27 28 28 25 20 14 10 7 9 5 4 4 6 7 8 10 11 13 16
4 6 10 4 7 12 1 8 7 4 19 9 15 12 12 14 8 6 12 15 16 18 26 27 26 25 25 25 21 17 14 10 8 4 2 3 4 5 7 10 11 12 13 16
4 5 15 6 5 7 6 4 5 11 5 5 18 14 19 14 5 9 18 17 17 22 29 30 27 24 25 22 19 16 13 9 5 3 1 1 3 6 6 9 11 13 16 18
8 8 3 2 1 11 6 4 9 5 2 2 3 6 14 5 10 20 21 20 21 21 27 27 24 21 22 20 16 15 12 9 6 4 2 2 2 2 4 8 12 14 16 18
4 5 6 8 6 2 4 2 1 2 3 4 6 5 12 14 16 18 20 20 19 21 25 25 25 21 19 16 15 16 13 11 8 6 6 4 3 4 4 8 12 16 17 18
2 1 3 3 5 7 4 2 2 2 1 3 5 11 14 18 18 18 16 17 16 19 21 24 24 19 18 16 16 17 16 11 10 10 6 5 6 8 10 10 11 16 18 15
3 8 6 4 3 2 4 6 5 5 9 12 8 10 17 19 16 18 17 16 13 17 19 23 22 19 21 22 20 18 15 13 11 9 8 5 6 9 12 13 13 13 13 14
5 6 6 7 9 7 6 7 5 9 9 14 19 14 11 15 18 17 14 14 18 18 19 21 23 25 26 23 20 16 13 11 10 8 6 5 7 10 10 12 18 14 13 17
Wind_Direction
197 185 204 205 204 173 147 204 252 251 181 192 233 255 271 280 221 211 191 175 190 177 136 169 168 161 161 156 163 167 164 161 156 137 130 123 112 100 87 77 64 57 51 45
141 224 212 207 179 198 202 229 255 303 211 179 264 256 259 243 226 195 196 187 171 154 157 168 165 160 153 149 152 153 149 146 142 139 129 125 116 96 76 62 46 37 30 22
205 191 188 177 166 183 218 229 252 227 352 254 271 278 256 255 185 187 207 198 161 168 167 168 161 147 142 142 142 137 133 133 132 128 126 121 115 102 73 54 45 39 29 21
232 211 181 198 217 187 230 201 211 247 117 264 147 280 264 258 215 205 182 174 174 168 167 164 162 152 144 137 134 132 131 128 123 123 120 112 96 92 67 61 52 44 39 36
220 179 185 203 213 187 230 146 190 216 202 261 265 264 223 214 217 212 201 187 183 174 166 167 167 160 149 145 140 134 128 125 122 114 104 97 87 77 64 44 30 35 35 25
229 213 194 203 183 203 151 112 296 139 157 251 236 218 201 211 224 201 195 190 180 171 165 163 168 160 154 150 143 138 133 125 122 114 104 95 90 86 69 50 57 41 20 3
168 206 219 149 187 163 170 116 291 287 202 251 212 232 246 242 222 200 191 191 185 176 166 167 166 162 156 154 148 143 137 131 128 120 110 103 99 95 99 101 55 360 354 315
204 215 190 176 196 177 203 196 197 205 228 254 189 235 239 219 226 214 196 187 171 172 170 171 168 161 160 157 152 147 143 136 133 125 118 117 114 113 114 95 39 327 321 319
196 232 175 188 147 168 176 209 208 293 144 310 218 288 298 218 263 165 158 163 179 177 172 172 167 163 160 159 157 153 146 141 138 131 124 121 119 115 97 53 13 354 339 333
199 276 203 193 147 220 180 152 153 212 236 254 226 240 230 285 246 181 170 182 180 175 170 165 163 158 161 161 156 154 148 140 135 131 128 127 123 114 95 27 3 351 341 330
178 165 297 151 200 192 194 210 202 170 166 233 269 258 207 221 213 192 190 185 178 174 170 161 160 161 161 159 155 147 143 139 136 135 133 136 126 105 66 30 18 8 359 354
205 132 178 206 297 217 207 213 203 205 228 239 245 252 166 224 186 170 178 166 164 168 161 156 155 152 155 156 153 148 144 140 138 142 144 129 114 80 42 35 12 359 349 342
182 192 97 320 300 229 209 212 210 219 80 224 207 244 17 99 141 167 154 148 152 149 148 149 151 154 150 153 151 148 145 142 146 143 131 113 85 61 36 7 350 340 335 336
173 190 209 217 235 162 188 202 210 208 227 220 236 250 165 164 166 158 158 160 161 162 160 159 154 148 150 155 152 148 145 145 140 133 119 105 79 31 2 345 340 339 340 338
182 220 213 231 224 199 189 192 200 216 222 211 243 242 227 187 185 189 167 157 163 167 163 162 153 149 152 152 151 147 144 145 141 133 133 113 69 4 345 347 351 348 342 344
190 241 146 215 218 219 235 224 217 219 222 241 250 253 188 193 144 152 174 168 171 172 165 155 153 155 156 150 150 150 148 143 149 143 123 87 16 7 7 2 358 350 346 343
182 129 130 224 168 172 252 228 225 227 228 227 233 244 150 168 180 180 174 177 177 174 169 163 163 158 151 153 155 152 149 146 140 124 96 57 31 27 14 1 354 349 345 340
152 164 122 191 138 216 250 204 223 229 237 233 244 207 192 188 195 188 183 175 175 169 166 162 155 148 144 148 151 147 146 141 126 109 75 48 36 24 6 356 346 336 338 344
98 173 170 190 200 298 263 209 159 189 238 231 234 195 177 129 87 11 185 186 175 168 159 153 146 142 146 150 149 143 128 128 114 72 73 57 33 17 348 329 330 341 340 343
130 212 203 169 202 224 4 190 178 105 264 178 188 178 147 143 165 219 172 156 156 156 151 141 138 136 138 147 147 144 141 117 93 122 86 45 10 340 316 318 333 340 342 338
133 150 210 189 226 280 232 178 143 170 257 216 183 171 162 183 189 145 154 153 146 139 134 132 135 139 146 147 152 139 120 124 145 133 93 351 304 293 299 325 338 343 348 347
161 154 171 148 162 253 154 85 173 220 30 50 163 163 180 112 123 142 143 140 139 135 132 134 131 132 146 153 145 134 141 152 155 169 191 250 258 285 334 349 351 354 352 347
183 175 170 189 206 266 245 195 182 203 175 162 125 115 124 123 131 137 137 138 135 132 130 133 131 133 140 139 156 151 153 159 163 151 143 136 61 43 18 4 5 357 349 338
238 174 151 109 239 230 221 253 215 165 107 91 114 130 133 137 139 136 135 132 129 132 133 134 134 128 135 154 155 156 158 158 150 147 136 101 73 43 34 25 5 348 340 328
175 152 166 254 262 7 277 232 179 126 112 105 101 128 136 133 138 136 133 128 126 128 137 137 127 147 160 162 158 159 158 156 146 136 123 94 50 31 21 11 356 343 344 337
190 171 182 212 179 184 209 194 143 141 143 137 128 124 127 133 133 130 125 129 132 132 137 134 154 159 162 161 159 161 159 161 157 152 129 83 45 28 15 358 352 356 342 344